Location: Bieg
(49.3499°N, 10.3835°E)
Time: 00:33:12
(UTC+00:00)

Cosmos 1980 Rocket - Pass Details

Date: 23 May 2024
Orbit: 827 x 851 km, 71.0° (Epoch: 12 June)

Event Time Altitude Azimuth Distance (km) Brightness Sun altitude
Rises 01:05:12 0° 321° (NW) 3,427 5.7 -15.9°
Reaches altitude 10° 01:08:11 10° 306° (NW) 2,486 4.8 -15.6°
Maximum altitude 01:12:21 21° 259° (W) 1,812 3.6 -15.3°
Enters shadow 01:13:56 19° 237° (WSW) 1,921 3.5 -15.2°
